Theta_e
310 310 310 310 311 311 311 312 312 312 312 311 312 312 313 313 313 313 314 313 313 313 314 313 314 314 315 315 314 314 311 304 302 300 298 301 310 316 316 316 316 316 314 306 305 304 302 304 306 309 309 308 305 303 304 304 304 306 297 295 292 295 294 298 298 300 301 299 302 303 303 304 302 306 307 310 309 309 311 310 312 313 314 321 324 327 328 330
310 310 310 310 310 310 311 311 312 312 312 311 312 312 312 313 313 313 314 314 313 313 314 314 314 315 315 315 314 313 307 304 300 299 298 307 314 315 316 315 316 314 310 303 302 302 302 302 304 307 306 303 308 300 305 301 305 298 296 296 292 295 298 301 301 302 300 299 301 303 304 303 304 304 308 305 306 307 306 308 311 311 314 322 326 327 327 329
310 310 310 309 310 310 311 311 312 312 311 311 312 312 313 313 313 314 314 314 314 314 314 314 314 315 315 315 314 311 304 303 299 295 300 311 314 315 315 315 315 313 304 303 305 304 303 303 305 305 304 301 304 300 303 300 302 300 298 292 293 298 298 301 301 300 300 300 300 301 303 302 305 305 308 304 304 306 304 306 308 308 309 314 322 324 326 327
310 309 309 309 309 310 310 311 311 311 311 312 311 312 313 313 314 314 314 314 314 314 314 314 314 315 315 315 313 303 303 303 293 297 303 311 314 315 315 315 313 309 306 306 307 305 306 306 304 304 302 301 302 303 298 303 299 300 296 293 294 298 296 300 302 301 301 302 299 300 301 301 305 304 304 304 302 303 305 308 307 307 308 311 318 324 325 326
309 309 309 309 309 309 310 310 311 311 311 311 312 313 314 314 314 314 314 314 314 314 314 313 314 315 314 314 312 304 299 291 291 300 304 311 314 315 313 313 311 307 305 307 306 305 304 303 302 303 301 297 301 300 299 303 304 301 297 297 297 300 297 301 302 303 302 302 301 300 299 299 303 304 304 304 301 300 304 308 308 309 310 311 311 322 325 325
309 308 309 308 309 310 309 310 311 311 311 312 313 314 314 314 314 314 313 314 314 314 313 313 314 313 312 312 308 303 297 280 295 299 309 311 313 313 312 312 309 306 305 303 303 303 301 301 300 298 297 297 297 295 301 302 304 294 299 298 300 301 298 302 302 302 302 301 300 299 301 301 301 300 303 302 302 305 309 310 310 310 311 311 314 320 322 325
308 308 308 308 309 309 309 310 310 311 312 313 314 314 314 314 314 314 313 314 313 313 313 314 313 313 311 309 303 302 294 293 298 303 307 311 312 309 310 308 306 304 303 301 301 300 300 298 299 297 296 296 298 298 300 300 302 298 295 299 300 301 300 302 301 302 302 300 299 302 303 299 299 297 303 300 304 306 308 309 309 310 310 311 313 319 318 321
308 308 308 308 308 308 309 310 310 311 312 313 313 313 314 314 314 313 313 313 313 313 313 313 313 312 310 305 300 295 293 292 298 303 307 309 305 304 306 304 303 303 301 300 300 299 300 297 295 298 296 294 296 297 300 298 299 296 295 299 300 301 301 302 301 301 301 301 303 302 299 299 300 299 301 300 303 305 306 307 308 309 309 311 313 312 316 318
308 308 308 308 308 308 309 310 310 311 312 313 313 313 313 314 313 313 313 312 311 311 312 313 311 311 309 303 298 292 290 298 301 302 304 302 301 301 304 302 303 301 300 300 302 301 298 297 296 299 292 293 298 296 299 296 293 298 298 299 299 299 300 301 300 300 300 300 301 299 298 300 301 302 299 301 302 304 306 306 306 307 307 307 308 310 311 315
307 307 307 307 308 308 309 309 310 311 312 312 312 312 313 314 313 313 312 312 311 311 311 312 310 308 307 303 297 288 294 301 302 303 303 301 301 302 302 302 302 301 300 300 299 300 298 298 298 301 300 296 299 296 298 297 294 300 299 298 298 299 299 300 298 299 300 300 301 297 297 297 301 299 294 302 303 306 306 306 307 306 306 307 308 310 312 315
307 307 307 307 307 308 309 309 310 311 312 312 312 313 313 313 312 312 312 312 312 312 310 311 309 306 302 301 291 287 299 300 303 303 302 301 301 300 300 301 301 300 300 301 300 301 301 301 302 302 300 293 298 294 296 296 301 298 298 297 297 298 298 298 298 298 299 298 300 300 298 299 300 299 296 300 303 304 302 303 304 305 307 308 310 310 314 317
307 307 306 307 307 307 309 309 310 311 312 311 312 313 312 312 312 312 311 311 312 311 311 310 306 306 301 297 291 291 301 300 303 303 302 301 300 300 303 302 302 301 300 299 301 303 302 302 302 298 289 300 290 296 295 300 297 296 296 291 293 295 294 296 294 296 297 296 298 298 295 294 296 294 298 300 302 302 302 302 303 304 305 305 306 307 308 310
306 307 307 307 307 307 308 309 310 311 311 311 312 312 311 311 312 311 311 309 312 311 311 308 306 305 302 291 294 300 302 303 303 302 302 302 302 303 304 304 303 303 302 300 301 303 303 303 303 295 299 296 293 288 296 299 295 296 294 291 290 290 291 294 296 296 296 296 297 297 286 291 294 297 298 300 300 300 299 300 301 301 302 303 304 305 306 308
306 307 307 307 307 307 308 309 310 311 310 311 312 311 310 311 312 311 309 307 312 311 310 307 306 303 299 291 298 302 304 305 303 302 300 302 300 301 303 304 305 304 303 301 303 304 304 304 303 299 302 295 292 301 294 294 296 288 291 292 286 286 287 294 294 294 293 297 297 297 288 291 293 295 299 300 299 298 298 299 300 300 301 301 302 303 304 306
306 306 306 307 307 308 308 309 310 310 310 311 311 309 310 310 311 310 307 309 310 311 310 307 305 302 292 293 301 305 308 304 300 299 302 299 298 299 299 302 303 305 304 304 304 305 305 305 303 297 294 300 299 294 290 290 291 291 286 282 289 285 288 292 295 294 289 295 297 295 289 291 294 297 299 299 299 299 298 299 300 300 300 301 301 302 303 304
306 306 306 306 307 307 308 308 309 309 310 311 309 309 310 309 309 308 307 308 308 308 307 302 300 299 292 288 295 307 301 296 296 301 302 301 299 297 300 301 304 303 304 304 306 307 305 305 298 297 296 296 293 289 287 287 288 289 286 284 283 286 286 288 291 294 294 293 295 293 287 291 292 297 298 299 299 298 297 298 299 299 300 300 300 301 302 303
305 305 306 307 307 307 307 308 308 309 310 309 308 308 308 307 309 306 306 305 305 306 304 296 299 300 287 297 305 295 293 297 301 301 301 301 300 300 300 299 298 299 302 303 303 306 303 299 300 297 297 291 291 290 284 283 283 284 287 283 285 283 285 284 291 292 294 292 289 293 290 290 293 296 297 299 299 298 297 297 298 299 299 300 300 300 300 301
305 305 305 306 306 307 308 308 308 309 309 308 306 308 306 305 306 306 303 305 303 305 301 307 300 296 291 300 288 291 297 297 299 299 301 301 301 300 299 297 298 298 299 298 299 297 299 294 297 288 290 290 289 287 282 278 280 280 282 282 283 285 285 284 284 290 291 291 289 290 290 290 293 295 296 297 298 297 297 297 297 298 299 299 299 300 300 301
304 304 305 305 306 307 307 308 308 308 308 307 306 307 306 304 303 305 300 300 298 293 289 290 291 281 279 289 296 296 295 299 299 299 296 298 299 301 302 301 301 296 293 293 292 295 296 293 292 286 282 285 285 285 283 284 285 283 285 284 284 282 283 284 287 291 291 289 288 289 288 290 292 293 295 296 297 296 296 297 297 297 298 299 299 300 300 300
304 304 304 305 306 307 307 308 307 308 308 304 303 303 302 298 296 293 299 296 291 290 291 292 294 293 293 294 293 297 300 301 295 297 298 299 299 298 297 297 296 296 291 287 291 291 295 285 282 281 284 286 288 288 288 288 288 287 286 285 284 284 285 288 289 291 293 290 289 290 290 290 291 292 293 294 296 295 296 296 296 297 298 299 299 300 300 300
304 304 304 305 306 307 307 307 306 307 307 305 303 299 290 288 288 286 291 291 291 291 292 292 293 291 291 294 296 294 292 294 298 295 297 300 300 298 291 295 291 287 288 290 289 292 294 284 283 286 287 288 288 290 290 288 289 287 286 285 284 284 283 288 287 291 293 289 288 290 289 289 290 292 293 295 295 295 295 296 297 298 298 299 299 299 298 298
304 304 305 305 306 306 307 307 305 306 306 304 301 295 294 294 295 297 294 286 290 292 291 292 291 293 298 296 298 295 295 291 292 294 298 299 297 291 291 292 288 284 289 290 291 288 284 282 285 287 289 290 290 289 289 288 286 287 285 285 284 285 286 287 289 291 292 290 286 289 287 289 292 293 295 295 295 297 298 298 297 297 298 298 297 297 298 298
304 304 305 305 305 306 307 306 304 304 303 300 297 296 295 299 300 300 297 289 287 290 291 292 292 291 293 298 296 298 291 287 286 292 293 296 294 292 291 288 287 287 288 288 284 283 281 283 286 289 289 288 287 287 286 286 287 285 284 283 281 285 283 282 287 290 291 289 287 288 288 290 292 294 294 296 295 296 298 297 298 298 296 296 296 296 296 296
304 304 305 305 305 305 306 305 304 302 299 299 298 297 300 300 300 299 292 285 284 288 290 291 292 292 291 290 295 292 290 289 291 288 297 294 291 293 291 288 287 286 284 286 286 283 282 285 288 289 288 286 284 285 284 284 283 286 285 284 282 283 284 284 284 287 289 292 291 290 287 289 289 289 290 294 296 295 297 298 297 296 296 296 296 296 296 295
304 304 305 305 305 306 306 304 298 297 298 299 298 300 300 299 300 301 291 283 284 285 292 292 293 294 293 298 298 290 290 291 291 294 295 294 291 293 288 291 289 283 284 287 287 284 284 287 289 287 286 286 285 283 283 283 282 283 286 285 284 285 284 285 286 284 284 285 290 287 280 282 288 288 290 293 293 294 296 292 292 293 293 294 293 294 295 296
304 304 305 306 306 305 305 297 296 298 298 296 298 300 300 299 298 299 288 280 277 282 291 284 294 288 299 291 294 291 291 286 293 294 296 295 297 290 292 286 289 281 284 286 285 284 283 288 288 286 286 284 284 283 284 284 281 281 282 287 286 286 286 285 284 284 279 279 286 290 279 277 287 286 289 291 292 293 292 291 291 291 291 292 292 293 293 294
304 304 305 306 305 304 297 292 296 298 295 296 300 301 300 299 297 296 287 278 275 282 282 289 292 289 298 292 292 295 279 282 292 296 293 297 291 296 288 284 288 288 288 286 286 280 285 286 286 287 285 283 281 280 284 283 281 280 286 287 286 285 285 285 284 284 282 286 288 288 285 279 280 286 290 291 291 291 289 290 290 290 290 290 291 292 293 293
304 305 306 306 304 303 297 299 299 296 295 299 300 300 298 297 295 294 283 269 267 287 281 286 289 298 294 292 293 287 285 289 285 289 294 295 296 292 289 284 283 283 285 286 276 283 284 283 284 283 283 281 279 282 284 285 282 283 286 286 285 285 285 285 284 283 284 283 280 284 287 281 280 286 291 291 288 288 288 289 289 289 289 290 290 291 292 293
304 305 305 305 304 302 300 300 298 296 301 301 299 299 295 296 292 286 279 269 280 281 296 284 298 292 290 292 288 288 287 289 282 288 293 296 296 292 285 285 286 285 286 285 280 283 285 284 285 285 283 279 283 284 285 285 282 285 287 288 288 288 287 285 283 283 284 280 277 280 285 278 280 286 287 288 287 286 288 288 288 288 288 289 290 291 291 292
304 304 305 304 303 301 299 299 299 301 301 299 298 297 296 293 287 280 273 264 280 274 285 286 288 283 288 284 285 287 284 286 287 289 291 287 291 294 292 291 287 284 283 285 285 284 285 288 287 287 283 284 284 285 286 285 287 289 288 287 287 287 286 285 285 284 281 275 278 281 283 282 276 283 284 284 285 287 287 286 287 287 288 289 290 290 291 291
304 304 304 304 300 298 298 296 298 302 299 297 295 294 292 286 280 274 261 272 282 281 287 282 282 288 283 280 279 285 284 285 285 286 284 289 287 289 288 287 289 285 283 283 282 284 285 285 284 285 289 287 287 285 288 288 289 287 284 283 284 283 285 283 283 284 276 274 280 282 282 284 275 280 285 287 288 287 285 283 284 285 286 288 289 290 291 292
303 303 304 303 300 300 295 293 298 300 297 295 293 290 286 279 281 274 269 283 273 277 278 279 284 283 282 282 281 280 279 284 285 284 281 282 282 281 281 278 280 275 275 276 276 283 281 282 283 286 288 286 283 283 284 286 287 284 283 282 276 274 276 272 276 272 273 272 279 282 283 280 281 285 286 287 286 286 286 285 284 284 285 287 288 290 291 292
303 303 303 301 300 299 299 299 300 297 295 294 291 287 282 276 267 271 270 273 272 276 279 283 282 282 281 280 278 280 282 278 284 283 283 282 282 282 284 283 283 279 271 277 276 276 279 282 283 283 287 287 285 278 278 278 281 281 279 278 274 270 269 267 270 273 274 278 282 280 283 278 284 285 289 286 285 287 286 286 286 285 286 287 288 289 290 291
302 301 300 300 300 300 300 300 298 296 295 293 288 284 281 274 268 276 271 274 273 280 281 281 282 282 279 277 278 279 278 282 282 281 283 279 280 278 281 283 283 280 279 278 273 274 270 273 279 281 279 286 283 281 281 279 281 280 283 281 277 274 269 266 269 267 269 272 277 281 277 276 277 281 290 287 287 288 287 286 286 287 287 288 289 289 290 290
301 300 298 300 300 300 299 298 297 295 294 290 286 281 273 269 269 270 272 274 278 280 281 281 280 279 277 278 279 281 281 277 283 280 279 279 277 279 278 279 283 283 280 274 276 277 273 274 280 285 284 285 281 284 285 282 281 283 283 284 278 275 280 270 273 273 272 272 273 276 277 282 281 287 291 289 288 286 285 285 286 286 287 288 288 288 288 289
298 299 299 300 299 299 298 297 295 295 293 289 284 276 274 272 272 275 279 284 283 280 280 279 279 277 276 277 277 278 283 278 280 280 277 278 279 279 282 281 280 282 278 274 276 272 275 273 282 283 286 283 282 283 283 286 274 280 281 275 277 282 278 275 276 277 276 274 272 279 278 280 285 285 289 289 286 284 284 284 284 285 286 287 287 288 288 289
295 298 296 298 298 298 296 295 294 296 294 287 282 275 273 272 276 278 283 282 282 283 279 274 274 276 272 273 276 277 280 282 279 278 275 278 276 280 280 281 284 282 283 280 276 280 272 272 281 281 280 284 285 284 284 285 283 282 276 279 283 283 281 275 268 272 271 268 270 275 272 275 275 273 287 284 283 283 283 283 284 285 286 286 287 288 288 289
293 296 297 296 297 296 296 294 293 293 291 286 278 278 273 275 279 281 284 283 282 282 277 275 275 279 273 275 274 276 279 277 276 277 274 277 273 282 280 280 284 282 283 285 278 278 279 271 277 281 281 282 284 284 283 285 287 282 279 286 278 272 271 276 274 265 265 265 267 272 273 273 275 276 281 280 281 281 282 283 284 284 285 286 287 288 289 290
292 294 288 294 298 295 295 294 294 293 287 280 277 278 278 278 281 280 284 285 282 280 278 276 274 277 278 275 276 278 278 274 277 276 274 275 273 281 280 280 280 283 283 284 279 280 280 271 274 281 280 280 281 280 275 279 285 282 285 281 284 280 274 271 273 272 272 266 266 267 270 270 278 279 280 280 281 281 282 282 283 284 285 286 287 287 288 289
291 288 284 295 295 295 294 295 291 287 284 278 275 275 278 278 283 284 284 284 281 280 279 278 277 276 277 277 277 275 279 278 277 276 277 278 276 282 279 282 278 281 282 284 280 283 275 279 269 277 280 280 275 278 276 277 276 279 280 277 277 277 280 277 276 273 270 267 267 266 265 272 279 282 281 281 282 282 283 282 283 284 285 286 287 287 288 289
286 285 286 295 293 293 294 290 282 278 275 273 274 274 276 280 284 284 284 282 283 283 282 281 280 277 275 276 277 279 277 278 277 276 277 278 278 274 280 279 280 278 281 280 279 280 276 276 270 273 273 274 275 282 280 279 280 279 279 276 277 274 271 269 268 277 274 270 266 266 265 272 279 283 283 282 283 283 284 284 284 285 285 286 287 288 288 288
286 278 284 295 292 293 291 282 278 277 279 278 278 277 279 287 284 283 284 281 282 281 281 283 281 280 278 277 278 278 277 277 278 277 279 276 279 279 279 279 280 281 278 275 276 280 279 277 273 270 272 274 278 281 283 283 281 281 281 278 278 276 276 272 266 270 273 273 274 271 267 270 282 284 283 283 284 284 284 285 284 285 286 286 287 288 289 289
284 283 292 293 291 291 286 278 280 279 278 279 281 281 281 280 281 280 282 282 279 279 277 280 280 279 280 279 276 273 274 276 277 277 279 279 279 281 280 279 281 281 280 278 280 281 280 272 271 272 276 279 280 280 278 280 280 275 276 277 278 274 276 274 273 274 271 272 269 269 266 271 281 284 284 284 285 285 285 285 285 285 286 286 286 287 288 288
282 284 288 294 292 290 287 276 276 275 277 273 276 276 279 279 280 281 280 281 277 278 278 277 279 281 279 282 279 275 280 273 277 277 277 277 277 282 280 279 281 278 278 278 275 280 274 274 272 269 270 272 273 276 278 277 276 277 276 278 279 279 277 276 275 275 269 271 271 268 264 270 281 284 284 284 284 283 284 285 286 284 285 285 285 286 288 288
282 282 283 287 290 290 281 277 277 275 274 272 273 273 275 279 280 280 281 279 281 279 279 279 281 283 281 281 279 281 279 277 274 277 276 278 278 282 281 279 281 279 281 282 281 283 276 274 272 267 264 262 264 266 268 270 273 276 277 277 277 275 274 272 269 271 268 272 273 270 269 276 281 283 282 282 282 282 284 285 285 285 284 284 284 286 287 288
281 277 280 283 283 285 282 283 280 276 271 271 271 272 276 276 278 278 280 281 281 281 281 281 283 283 279 278 276 274 274 277 274 272 275 274 276 278 281 280 279 279 280 282 284 282 276 276 274 273 270 269 271 273 277 277 274 270 273 274 275 276 277 275 273 270 268 271 271 273 273 274 276 278 279 280 281 281 282 283 282 282 284 284 284 285 286 287
283 279 277 277 281 280 277 279 277 278 277 277 273 272 273 275 275 277 280 279 282 281 281 281 280 278 277 276 274 274 275 274 275 273 273 273 276 278 278 279 278 280 282 282 283 280 274 271 273 272 272 273 274 273 275 276 271 272 272 272 275 274 274 272 269 268 274 270 266 273 275 272 274 277 279 279 281 282 282 281 281 282 283 283 283 284 286 287
280 276 276 277 275 276 277 276 275 275 275 276 273 275 275 275 275 274 278 280 281 281 278 280 279 279 279 276 275 271 273 273 272 271 275 275 275 277 276 279 277 280 281 278 281 278 272 269 272 272 271 273 274 274 275 274 274 273 273 273 272 274 273 270 270 273 273 269 267 272 275 273 275 277 279 280 281 281 280 280 281 282 283 283 283 283 284 286
280 276 278 278 277 272 276 276 275 274 273 275 277 275 274 275 275 276 276 277 279 277 279 274 276 277 278 278 276 274 273 270 270 273 272 273 274 275 274 276 278 279 276 275 276 276 274 271 272 272 270 272 273 273 274 273 272 272 272 273 274 273 273 273 272 273 273 271 273 273 274 274 276 278 280 281 283 281 280 281 281 281 281 282 282 282 283 285
280 280 278 276 275 273 275 276 276 276 276 277 275 274 275 275 275 277 278 277 275 276 280 276 276 277 278 277 276 274 275 276 275 273 276 275 274 276 274 276 275 278 277 275 275 277 273 271 274 272 269 269 272 273 273 273 272 270 272 273 273 274 273 274 274 274 274 273 274 274 273 273 278 281 282 283 282 281 281 280 280 281 281 281 281 281 282 284
285 284 283 280 277 275 275 276 277 277 276 276 274 273 275 276 276 278 278 281 278 276 278 276 278 278 278 277 276 276 279 278 278 278 279 278 273 279 275 275 279 274 276 275 275 273 274 271 274 271 267 267 270 271 271 271 271 269 269 270 272 271 268 272 272 275 273 272 274 274 273 274 279 283 282 282 281 280 279 280 280 280 281 281 281 281 282 283
285 284 283 283 278 280 278 273 274 275 275 277 277 275 276 277 279 278 277 279 280 281 281 279 279 278 277 275 276 278 281 281 281 282 282 282 282 281 281 280 280 277 275 275 277 273 274 272 270 269 266 266 270 271 270 269 268 268 269 272 274 275 275 276 277 277 277 276 273 271 273 279 281 281 280 280 281 280 279 280 280 280 281 281 281 281 282 283
Wind_Speed
21 20 20 21 21 21 21 21 21 20 20 20 20 21 21 21 21 20 20 20 20 20 19 19 19 18 17 15 15 11 12 4 14 19 22 14 17 22 23 24 23 23 22 15 15 15 16 15 18 18 11 5 4 3 4 3 2 4 6 8 12 9 10 7 10 7 4 7 3 4 6 4 7 1 2 3 3 2 4 6 4 4 5 2 3 3 4 6
21 20 20 21 22 21 22 21 20 20 20 20 21 20 20 21 21 21 20 19 19 19 19 19 19 19 19 16 15 8 6 3 14 20 18 18 21 23 24 24 23 21 19 14 16 14 13 14 15 14 10 6 3 0 7 2 4 6 5 8 12 7 4 2 6 8 8 7 12 8 4 6 4 6 4 6 4 2 5 5 3 5 5 4 5 4 4 5
21 20 21 21 20 21 21 21 20 20 20 20 20 20 20 21 21 21 20 19 18 18 18 18 18 20 20 19 15 6 3 5 16 22 17 22 23 24 24 23 21 19 13 10 11 10 10 10 10 11 7 6 5 5 8 3 6 2 6 8 8 7 6 6 10 8 8 10 10 11 6 7 6 6 6 7 10 8 9 7 4 3 2 3 3 2 4 5
19 20 21 20 21 22 22 22 20 20 20 20 20 20 20 21 21 20 19 18 17 17 17 17 17 18 19 23 16 2 4 1 16 14 14 23 23 23 23 22 19 16 11 7 9 7 9 8 7 7 7 3 4 3 3 6 4 3 4 7 4 8 5 6 10 9 9 10 10 10 11 11 5 5 5 7 8 12 10 8 8 7 6 4 2 3 4 6
20 20 20 20 20 21 21 22 21 21 20 21 21 20 20 21 21 19 18 16 16 15 15 16 17 16 17 22 17 3 7 4 11 13 16 23 23 23 22 20 17 13 9 8 8 6 10 8 8 3 3 4 4 4 3 5 5 6 5 6 6 9 7 10 11 10 11 9 9 10 10 8 11 9 5 8 11 9 7 3 2 5 6 6 5 2 4 6
19 20 19 20 21 21 21 22 20 20 21 21 21 21 21 20 20 19 16 15 14 14 14 15 16 16 15 16 12 3 2 9 9 13 20 21 22 22 21 19 15 12 9 9 10 8 10 8 8 5 4 4 4 4 4 5 5 4 2 3 5 7 8 11 14 12 11 11 11 10 7 11 10 11 10 11 12 10 11 11 9 7 5 6 3 2 5 7
19 20 20 20 21 21 21 22 21 21 21 21 21 21 21 20 19 17 15 14 13 13 13 14 16 17 16 6 6 11 15 6 6 14 18 20 20 20 19 15 10 12 9 11 11 10 10 9 8 7 5 3 2 4 5 8 4 4 6 6 7 9 9 11 15 14 11 10 12 10 8 9 11 14 4 8 11 12 13 13 13 10 5 3 6 6 8 8
19 20 19 20 21 21 22 22 21 21 21 21 21 21 21 20 17 15 14 13 12 12 13 14 16 18 14 3 2 10 14 11 14 13 17 17 18 16 15 10 11 11 8 8 9 10 9 9 9 8 2 5 5 6 7 9 4 4 4 7 10 9 9 11 12 13 13 12 9 9 10 10 9 12 12 18 13 13 15 15 15 13 6 6 8 11 10 10
19 19 19 21 21 23 22 21 21 21 22 22 21 22 21 19 16 13 13 12 11 11 12 12 15 18 11 1 4 11 12 11 12 13 15 14 15 14 10 10 13 11 6 6 5 8 8 7 7 8 5 8 4 7 6 7 1 3 7 10 11 12 12 10 11 12 13 10 6 10 14 12 11 11 17 18 19 15 16 16 15 11 9 11 12 13 12 11
19 19 20 21 21 22 22 22 22 22 22 22 22 22 20 17 14 13 12 11 11 11 9 10 12 16 9 5 9 14 7 8 8 10 14 12 13 13 12 10 10 11 9 8 7 8 8 5 5 7 6 6 1 3 6 4 6 10 10 11 13 13 11 9 11 12 12 10 10 12 15 15 10 4 9 3 5 4 7 10 9 8 10 12 11 11 10 9
19 19 20 21 22 23 22 22 22 22 22 22 22 21 18 15 13 12 12 12 11 9 6 7 9 11 6 8 16 11 2 7 9 10 12 13 14 14 13 10 9 9 8 6 6 4 4 3 4 4 3 2 8 7 5 6 8 9 11 13 12 10 9 11 9 8 5 5 5 9 13 11 8 5 12 10 13 12 10 12 14 11 9 9 10 11 11 10
19 19 19 21 23 23 23 23 23 23 23 23 23 20 16 12 11 11 12 11 11 7 6 6 6 2 2 10 13 8 7 7 8 9 10 14 14 12 9 6 7 6 4 9 9 4 5 5 3 4 4 10 5 9 2 4 9 10 11 11 10 11 10 3 5 8 4 3 12 9 12 12 8 7 6 8 9 13 10 7 8 9 10 10 9 9 9 9
19 18 19 20 22 22 23 23 23 23 23 23 22 19 13 11 11 11 11 10 9 6 5 6 3 1 2 9 6 1 4 5 7 9 10 8 12 10 7 2 5 4 4 5 8 7 5 4 3 5 3 5 7 4 9 11 9 10 8 8 11 7 6 6 5 12 2 7 14 9 7 4 5 7 10 8 11 14 12 9 8 8 9 9 9 8 9 9
19 19 20 20 21 23 23 23 23 23 23 23 21 16 11 11 10 10 10 8 8 5 3 7 4 0 3 6 3 1 5 7 9 10 14 12 14 14 12 15 4 0 2 4 6 5 4 2 4 4 3 5 6 8 9 6 5 6 9 6 7 7 2 10 7 13 9 7 15 11 7 2 8 7 8 10 13 14 14 12 9 8 9 9 9 8 8 9
19 20 19 20 21 22 22 22 23 23 23 22 20 13 11 11 11 10 9 5 8 6 3 3 3 2 8 3 3 2 5 7 10 18 14 16 16 14 18 15 12 7 2 3 3 2 1 1 4 4 5 2 6 6 6 5 3 5 4 4 2 3 4 13 7 11 11 11 13 11 7 5 8 8 12 12 13 15 16 14 12 11 11 12 10 10 9 9
19 19 19 20 20 22 22 22 22 23 23 22 17 10 9 9 12 10 8 5 7 11 3 3 8 5 9 11 7 12 5 20 18 16 12 10 13 10 14 13 9 12 5 3 0 0 1 1 5 5 7 5 9 7 7 3 2 6 4 6 7 5 7 8 1 8 7 16 9 8 7 11 8 10 18 14 15 15 16 18 17 15 12 11 12 10 9 9
18 19 19 19 20 21 22 22 21 23 23 21 13 6 5 9 12 6 5 6 3 2 5 6 6 2 7 1 6 15 15 11 11 10 13 11 9 9 11 11 10 15 6 2 8 2 4 2 2 2 5 9 11 9 5 4 7 4 6 5 6 7 9 7 10 6 11 11 13 14 8 10 11 14 16 14 13 14 14 17 17 15 13 11 8 9 10 10
19 19 19 19 19 20 21 20 20 23 23 19 9 4 3 6 9 4 3 3 0 1 0 2 2 3 5 6 13 13 13 10 11 10 9 15 1 11 8 8 5 10 3 2 8 10 6 5 7 9 8 12 12 11 10 9 9 10 9 8 7 7 6 10 9 8 13 13 11 13 15 13 9 12 16 15 13 12 13 14 16 14 13 11 8 7 9 10
19 18 18 18 19 19 20 19 19 23 24 14 5 1 1 2 1 6 8 8 3 5 5 10 11 9 4 15 10 10 10 8 9 7 18 19 10 7 3 2 4 13 8 8 8 8 5 6 9 11 14 13 12 10 8 9 8 9 11 9 10 9 8 8 10 11 11 12 12 11 10 13 16 16 16 18 16 14 13 14 14 14 11 10 9 6 5 8
18 18 18 18 18 19 20 17 17 20 22 10 5 1 3 4 3 2 7 10 12 6 5 1 2 2 6 8 10 11 14 7 6 14 14 16 10 9 10 6 4 4 13 9 7 9 6 12 15 13 13 14 13 11 8 9 8 9 8 9 9 10 11 10 11 10 8 9 6 8 11 14 15 15 16 17 17 14 12 13 14 14 13 10 9 8 7 8
18 19 18 18 18 18 18 14 15 17 20 10 7 6 5 2 2 3 7 3 1 1 2 1 1 2 7 9 9 13 9 6 2 13 13 13 10 7 13 10 12 13 11 10 4 2 4 15 15 14 14 13 12 10 9 8 7 8 8 9 9 7 9 11 10 8 6 6 9 10 13 15 15 14 14 14 13 13 12 10 10 12 14 13 14 16 14 10
19 19 19 18 17 17 17 11 12 15 11 9 12 10 6 4 2 3 2 5 4 3 2 2 2 3 3 3 2 2 5 7 18 23 16 17 12 11 11 10 12 11 10 10 1 4 13 15 14 15 12 11 7 9 9 7 7 7 7 8 7 6 8 5 4 7 7 8 9 9 12 12 13 12 11 9 8 8 8 8 9 10 12 12 14 13 13 13
19 19 19 18 17 16 15 8 7 9 7 12 12 10 6 1 2 2 1 2 3 1 3 5 7 12 10 1 1 4 8 12 8 16 17 16 13 10 8 10 11 9 11 12 11 10 11 11 15 13 10 10 9 12 13 10 4 7 8 7 8 9 9 7 9 11 12 8 9 11 11 11 6 1 3 4 5 6 7 6 7 8 11 11 11 12 13 14
19 19 19 18 16 15 14 4 3 4 6 10 12 9 1 1 2 5 2 1 1 4 4 2 2 4 7 9 7 6 4 5 5 17 13 11 11 8 4 10 8 10 10 10 8 12 9 8 11 11 10 11 12 12 16 12 8 8 7 7 8 11 10 8 10 15 15 11 10 10 10 2 3 8 8 6 2 3 3 6 13 12 10 10 11 13 14 14
20 20 19 18 17 14 12 4 4 4 2 2 9 3 2 1 3 2 2 1 1 5 5 2 3 2 8 4 2 4 4 3 10 4 9 12 13 7 6 2 4 10 9 9 2 8 10 9 9 11 12 13 12 11 15 12 8 8 3 3 8 9 13 12 11 13 9 7 6 8 7 1 5 11 6 4 5 5 10 15 13 13 14 14 15 14 14 14
20 20 19 18 16 15 6 2 4 2 2 5 3 4 2 1 1 2 2 1 2 5 3 8 3 8 2 11 11 5 4 6 10 7 7 8 5 2 5 6 4 10 11 6 5 4 4 9 9 10 12 12 12 9 12 10 8 7 8 3 11 11 11 11 11 8 6 8 4 7 4 5 7 8 4 4 7 8 14 13 13 14 14 15 14 14 14 14
20 20 19 16 13 12 0 2 2 1 1 1 2 5 4 1 1 4 2 0 2 4 4 4 4 5 4 8 13 7 3 9 14 4 12 11 9 2 5 9 3 3 2 3 2 6 7 10 11 11 14 14 15 13 13 13 8 7 11 12 12 12 11 10 8 5 6 5 13 5 4 6 7 4 4 7 8 11 13 12 13 14 16 17 16 16 16 15
20 19 17 11 11 11 3 2 2 4 1 4 3 5 3 2 2 1 1 3 3 5 5 5 3 4 7 8 9 9 4 10 5 12 12 14 4 2 7 9 6 8 9 4 7 3 5 8 11 11 13 12 12 13 14 9 7 9 16 15 14 11 10 8 5 5 5 6 6 10 5 3 3 3 5 8 7 12 11 13 16 18 18 18 18 17 17 17
19 18 15 8 11 10 5 3 3 6 5 5 6 4 1 3 2 1 0 2 1 1 5 1 2 3 11 4 6 6 2 5 7 9 12 7 11 3 6 8 4 3 3 7 4 5 1 2 7 4 7 11 14 15 11 7 8 11 18 16 10 6 4 3 3 4 2 1 7 9 9 5 5 6 6 7 11 10 10 14 17 19 18 17 16 17 18 17
18 16 13 4 2 2 3 1 6 4 5 6 5 1 3 1 2 1 2 2 1 2 4 4 4 9 10 8 4 13 9 5 1 8 5 6 9 6 2 1 4 2 6 1 3 4 4 4 2 3 5 7 14 13 8 6 6 15 14 11 3 3 3 3 0 2 2 1 5 8 10 7 4 7 6 6 7 10 13 14 16 20 21 20 17 17 16 17
17 13 10 6 5 2 2 2 8 7 7 4 2 2 3 1 0 3 2 0 3 2 2 2 6 5 9 12 8 12 3 6 11 10 8 8 11 16 12 3 9 1 5 8 9 14 3 0 3 3 2 7 9 11 3 3 7 11 8 9 6 3 3 2 1 1 4 5 7 9 12 8 4 3 6 6 9 14 14 16 19 20 19 18 17 17 17 18
17 11 7 6 3 1 6 5 9 8 6 4 3 1 2 1 2 4 3 2 2 3 3 5 2 6 8 1 7 10 6 6 9 9 9 8 10 14 15 11 11 7 7 9 8 11 1 3 1 2 4 11 13 8 8 6 6 12 10 10 7 5 3 4 5 6 6 6 9 11 13 6 6 3 7 11 10 13 12 11 15 17 18 18 18 18 16 16
16 9 3 3 3 3 2 4 5 6 6 2 2 1 0 2 2 1 2 3 1 3 2 1 6 8 6 1 7 10 2 5 10 9 5 2 4 11 14 13 10 7 5 7 6 10 3 3 5 12 3 10 12 11 13 5 12 11 12 10 7 7 5 6 6 4 5 5 8 12 10 5 4 3 6 10 12 10 11 11 10 13 15 16 17 16 17 17
16 5 1 1 0 2 2 2 3 4 3 1 2 0 2 4 1 4 1 2 1 2 5 4 8 0 6 5 5 5 3 2 9 8 7 2 3 7 10 15 15 12 4 4 6 6 6 1 7 10 6 10 10 9 7 6 9 7 5 6 8 5 4 6 6 8 8 9 14 11 2 3 9 5 8 13 10 9 10 9 9 11 12 14 13 15 16 19
14 1 2 0 1 1 4 4 3 2 2 1 2 2 4 1 0 1 1 1 1 3 3 1 3 4 1 2 4 4 3 2 9 8 7 5 6 7 8 11 13 10 10 4 4 3 3 7 5 5 5 6 12 10 4 8 5 2 4 3 3 5 2 4 5 5 6 10 8 5 4 7 7 10 5 9 9 5 6 9 11 15 15 15 14 16 17 18
5 0 2 1 4 6 6 5 3 2 1 2 4 4 3 1 0 2 1 2 0 2 3 1 2 1 2 2 1 7 1 2 9 5 2 4 4 6 5 6 8 10 10 7 5 5 4 4 3 12 2 1 11 12 5 7 5 7 5 4 5 4 2 5 5 6 8 7 5 3 7 8 8 1 8 6 4 11 15 17 17 18 18 17 15 16 17 17
2 3 1 4 4 6 7 4 3 1 3 2 3 1 0 0 1 5 1 1 1 2 2 0 2 3 4 3 2 7 6 3 4 5 3 2 1 6 5 4 7 9 7 3 4 2 5 12 12 5 4 1 9 8 4 2 3 4 4 7 5 0 3 4 5 5 4 4 5 4 10 10 8 5 4 10 12 15 17 20 22 20 19 20 18 17 18 18
3 2 1 3 5 6 6 4 2 3 4 4 5 5 2 1 1 2 1 2 2 1 1 1 1 3 1 3 2 7 9 2 7 3 2 3 1 1 3 3 4 7 6 3 3 1 3 9 1 4 4 7 13 8 4 4 3 6 5 6 5 2 2 5 3 5 8 7 6 7 9 9 9 9 8 12 12 13 16 18 20 21 21 19 19 20 21 20
1 1 1 4 4 7 6 3 2 2 3 7 1 3 2 2 1 2 1 1 1 1 0 0 0 1 2 0 3 3 5 4 7 4 3 1 1 2 3 3 2 6 7 5 2 2 1 4 4 4 5 10 7 3 2 4 4 1 4 4 3 1 2 5 3 4 2 7 6 4 7 8 4 3 10 12 9 11 15 16 16 17 19 18 18 18 18 18
2 0 1 3 6 7 7 2 4 4 4 4 3 1 1 1 1 2 1 2 1 1 1 0 1 0 1 1 3 2 3 4 3 3 2 1 3 3 4 2 4 6 7 2 1 1 3 1 6 3 13 11 1 3 4 5 6 4 2 4 3 3 1 3 2 2 2 5 4 6 8 3 2 5 9 6 7 11 15 17 14 14 16 17 17 18 17 16
1 1 1 3 8 7 3 8 9 6 5 1 3 3 0 3 2 1 2 3 0 3 2 1 2 2 2 1 2 1 4 3 2 3 1 1 1 2 3 4 4 8 7 2 1 2 2 2 7 11 8 6 8 3 4 8 7 3 2 3 7 7 7 5 5 2 2 2 5 6 12 13 9 6 1 3 8 12 19 17 13 13 15 16 16 17 17 15
0 1 3 5 8 7 2 6 5 1 2 3 2 4 2 3 3 2 1 2 4 1 3 1 2 0 3 2 2 2 2 4 2 3 3 2 2 3 2 3 4 3 6 5 4 2 1 3 5 7 5 11 14 11 2 6 1 2 4 2 6 4 2 2 6 3 6 6 7 9 11 12 0 2 1 7 12 18 19 16 13 13 14 14 15 16 14 14
2 0 3 4 6 2 7 6 1 2 3 1 1 1 3 3 2 1 1 2 0 1 2 1 1 1 2 2 1 2 1 4 3 2 2 2 3 1 3 1 8 7 7 2 2 2 3 1 4 7 7 10 10 0 0 2 1 1 2 1 4 4 2 4 6 8 10 11 7 7 9 12 6 4 7 12 17 17 14 15 14 13 12 14 15 15 14 13
0 1 2 1 4 0 2 1 2 1 1 3 4 0 3 2 2 2 1 1 0 1 1 0 1 2 0 0 1 2 2 4 1 3 1 2 3 4 3 0 8 6 4 3 2 3 4 1 3 10 6 1 2 0 3 3 1 2 5 5 7 5 4 5 7 7 7 10 11 9 13 10 3 4 11 15 17 17 18 17 13 13 13 14 14 13 13 13
1 0 1 5 9 4 3 0 4 4 1 2 1 3 3 2 2 1 0 2 2 2 2 2 1 1 1 0 2 2 2 1 4 1 2 3 3 1 2 2 7 7 4 5 7 5 3 4 4 6 8 8 8 8 9 7 8 8 7 5 5 6 9 7 5 4 7 6 8 8 14 16 15 16 21 20 18 18 18 15 11 10 12 14 14 14 13 12
1 1 2 3 6 5 6 1 2 5 5 3 3 1 1 1 2 2 3 3 2 2 1 1 1 2 1 1 1 1 1 0 1 2 3 2 3 2 1 7 6 6 8 10 5 2 2 3 5 6 5 8 9 9 6 10 11 11 13 11 15 10 9 8 8 8 12 9 11 15 18 21 22 23 22 19 19 20 19 14 12 12 12 13 15 14 13 12
0 2 1 1 1 6 3 3 2 0 2 1 1 1 1 1 1 1 2 1 2 1 2 1 2 3 1 1 1 2 1 2 1 3 4 5 2 3 4 9 8 7 8 3 4 1 1 4 6 9 12 13 14 15 13 13 16 15 14 16 14 13 11 11 10 12 4 6 15 13 17 16 18 19 21 21 20 20 14 11 12 12 11 13 15 16 16 13
1 0 0 0 0 0 1 2 2 4 2 1 2 0 2 1 0 1 0 1 1 2 2 2 2 1 2 2 1 1 1 3 2 3 2 4 5 6 7 2 3 2 3 1 2 2 4 7 3 6 9 10 12 15 14 13 15 15 16 17 18 15 12 12 16 19 15 12 16 16 18 21 21 21 20 19 19 14 10 11 11 11 12 14 17 17 16 14
2 1 1 3 1 1 2 2 3 5 5 2 2 1 2 2 2 2 0 1 2 2 3 2 4 4 3 3 2 2 1 3 2 2 3 2 3 7 5 6 1 2 1 1 1 1 4 7 6 4 8 8 11 16 16 16 15 16 17 18 18 17 17 16 18 17 16 18 20 20 21 24 22 23 21 18 9 7 8 8 9 12 14 16 18 18 16 14
1 1 1 3 5 4 1 1 1 2 2 1 2 0 3 4 4 3 1 2 2 4 1 3 4 6 6 5 3 4 5 7 8 8 4 4 6 4 6 8 8 2 1 0 2 0 0 5 4 8 10 9 9 11 12 12 11 16 20 17 20 19 17 17 15 17 17 16 20 23 23 22 18 18 15 5 6 7 8 11 12 12 15 18 18 18 17 14
2 2 2 4 2 1 2 1 2 1 2 1 1 3 2 4 2 2 2 3 5 3 4 6 4 5 4 6 7 10 10 9 9 11 10 8 9 6 4 3 3 6 5 6 2 1 4 6 6 6 8 9 4 6 6 6 11 15 20 20 16 11 8 8 7 8 8 13 17 18 16 15 13 6 5 9 8 9 11 12 12 13 16 18 19 18 17 14
2 1 1 1 3 1 1 1 0 1 1 1 2 6 3 6 3 2 1 3 3 4 4 3 5 3 3 5 10 11 10 9 9 10 9 9 9 11 11 14 13 13 10 7 3 5 4 5 6 6 7 10 4 3 6 13 13 12 8 8 8 6 8 9 11 13 13 13 13 12 13 12 11 2 11 14 14 12 12 11 13 15 16 17 17 18 17 14
Wind_Direction
22 21 20 18 17 15 14 12 10 9 7 5 4 2 358 355 354 353 351 350 349 349 349 349 347 345 346 352 344 346 342 322 31 29 32 12 338 339 337 335 339 340 344 329 342 349 350 353 353 350 344 327 7 309 9 275 309 227 223 228 242 242 238 228 234 239 348 286 344 54 13 305 247 109 62 257 196 208 264 253 245 254 252 2 36 57 96 127
21 18 19 16 15 13 12 11 9 7 4 3 1 357 355 353 351 350 349 347 347 347 347 345 346 345 339 345 342 334 322 284 26 33 27 348 344 342 341 339 339 346 341 343 349 346 341 351 350 342 345 350 1 274 331 105 326 227 236 234 244 242 264 343 4 14 358 330 334 327 353 331 338 339 15 309 220 271 295 247 214 251 222 126 88 83 118 142
18 16 16 14 12 12 10 8 5 3 2 1 359 356 353 351 349 347 345 345 344 345 345 344 344 345 341 332 341 291 245 235 27 20 350 347 344 342 342 339 340 344 345 321 324 321 329 327 333 334 348 324 42 341 328 42 323 272 273 244 239 18 331 27 23 24 18 347 333 332 343 329 314 317 340 281 290 292 268 266 209 213 271 158 115 140 142 171
16 14 14 11 11 9 8 6 4 1 1 0 357 353 351 350 347 345 343 343 344 344 343 343 344 348 344 330 344 148 197 278 41 353 344 342 342 342 341 339 342 340 332 318 306 305 309 300 334 338 330 309 353 320 317 13 293 23 252 253 336 358 334 54 7 7 355 346 328 327 318 298 341 346 310 295 292 262 264 261 267 287 303 348 89 162 172 185
14 13 11 10 8 6 6 5 1 359 358 358 353 349 348 347 345 343 344 345 345 346 342 340 346 351 348 332 341 174 154 327 25 343 341 338 340 341 339 338 342 335 327 309 335 341 343 352 335 358 345 327 353 318 72 13 16 301 269 19 7 10 311 345 344 341 342 332 316 320 315 314 332 290 261 270 257 256 261 345 31 294 309 329 324 200 197 202
12 12 9 7 5 4 3 2 359 356 355 355 351 346 346 346 345 345 348 348 349 347 343 341 343 350 347 334 319 182 100 42 331 331 336 337 336 339 335 335 337 326 333 2 1 351 3 3 349 15 357 323 3 323 12 359 349 286 222 59 21 8 329 328 327 329 327 326 319 315 327 326 304 297 284 270 261 271 289 313 311 300 310 324 317 226 215 215
11 10 8 6 3 1 1 359 356 352 350 350 347 345 345 345 345 347 349 351 352 349 346 342 343 343 348 321 273 53 75 100 331 330 331 334 334 336 332 330 336 344 355 8 7 6 4 6 16 8 343 318 71 333 343 331 303 252 277 347 338 347 324 325 315 320 317 308 303 304 305 291 298 291 345 280 273 273 282 290 293 296 290 275 271 240 247 236
10 9 6 6 1 359 359 356 352 349 348 347 345 344 344 343 346 348 349 353 356 355 349 348 343 342 355 348 273 63 47 11 344 329 327 332 332 330 330 319 355 343 3 19 2 7 336 16 11 350 1 1 342 335 335 330 306 277 269 341 319 324 319 317 315 312 308 300 290 295 282 280 280 283 304 281 280 277 281 285 283 279 266 263 260 264 257 253
9 7 6 4 0 358 356 354 350 348 347 346 344 343 343 343 345 346 351 353 356 355 351 349 349 339 343 233 278 53 28 345 327 318 327 334 328 324 333 354 344 349 337 2 6 358 351 20 4 14 339 344 342 318 343 337 189 44 319 315 310 310 315 316 308 301 299 295 278 283 280 279 269 281 270 271 275 272 265 267 273 278 285 277 271 271 269 260
7 6 5 2 359 356 355 352 349 347 346 344 343 342 342 343 345 345 349 351 347 345 350 353 351 343 329 352 44 57 17 318 323 330 329 327 325 336 347 348 350 341 350 355 354 12 16 358 344 346 310 278 327 323 325 302 301 352 315 314 309 304 308 309 297 297 294 287 276 271 278 276 269 199 269 126 286 342 305 284 283 285 281 280 277 281 282 273
6 4 3 1 358 356 354 351 348 347 345 342 342 343 341 342 342 346 349 350 354 346 3 11 5 357 18 16 51 47 355 329 345 332 323 334 336 345 339 338 345 337 340 332 0 0 358 334 348 304 244 354 322 304 299 309 333 318 314 310 298 298 303 296 288 296 319 307 352 283 275 277 254 207 263 292 315 329 318 307 305 307 304 308 322 321 316 309
5 3 2 0 358 356 353 350 348 346 344 341 343 343 340 340 340 348 352 352 1 358 359 35 25 358 316 51 51 23 318 325 325 333 335 343 335 317 302 322 322 325 321 329 332 13 335 323 306 317 329 352 299 305 286 0 323 307 308 301 308 311 301 1 359 343 326 348 351 329 289 266 201 232 48 34 4 3 349 334 318 315 317 320 321 318 311 306
4 2 1 359 357 356 353 349 347 346 341 342 345 343 343 340 340 345 354 353 2 6 35 18 4 30 285 57 54 15 319 312 319 319 338 330 316 329 316 271 328 297 256 288 310 327 319 292 279 307 341 321 308 312 323 327 303 301 285 293 303 303 291 59 3 359 295 33 347 335 270 279 199 126 52 25 7 356 348 353 353 345 342 336 339 332 323 320
360 0 359 358 356 356 353 349 346 345 340 343 346 342 343 340 333 342 351 355 355 9 31 38 3 300 55 78 122 284 312 325 295 334 355 341 346 334 351 348 346 350 238 262 293 329 330 263 268 303 289 283 332 341 312 299 320 306 296 270 287 294 244 57 31 7 353 27 347 331 252 127 125 113 48 14 4 356 342 346 349 344 340 335 329 323 323 320
358 357 357 357 356 355 353 351 346 342 338 344 344 342 342 342 336 338 4 354 357 345 329 315 10 248 26 67 220 298 307 265 341 350 345 347 350 340 354 337 344 355 336 282 320 11 330 228 247 346 14 359 287 302 318 316 336 339 289 258 109 331 306 348 42 22 4 339 347 335 248 258 321 322 351 358 356 357 341 335 338 340 337 331 329 328 324 317
357 357 357 357 355 355 354 352 348 339 339 344 345 341 349 351 343 357 32 24 6 355 305 23 8 6 80 29 346 294 310 0 350 324 321 337 346 343 320 320 320 2 42 73 267 168 146 265 26 19 359 26 1 349 317 316 116 34 11 334 351 329 320 319 44 17 8 339 333 7 307 326 297 323 326 346 345 350 340 331 329 333 333 329 326 326 321 320
356 357 357 356 354 356 356 354 349 338 341 346 344 349 11 6 353 3 70 53 344 288 28 38 315 250 42 230 256 4 350 320 317 318 328 343 340 332 332 351 4 348 18 173 24 221 7 72 4 162 44 27 6 355 330 23 4 1 355 326 328 327 327 310 326 354 338 348 319 317 300 292 299 312 318 331 340 338 333 324 322 324 322 319 309 314 316 317
357 356 355 355 354 356 357 357 350 340 344 348 356 347 28 16 359 23 12 65 346 42 194 14 19 262 128 16 8 324 320 317 328 310 289 336 318 343 359 356 338 328 280 180 21 20 351 43 2 37 24 19 15 12 15 6 360 335 339 330 321 312 308 299 318 321 332 322 309 308 302 295 308 322 315 320 326 326 320 318 313 311 310 309 303 292 307 310
359 357 354 354 354 356 0 2 355 345 347 350 24 89 7 154 100 96 48 343 42 29 19 6 8 53 348 322 323 322 321 318 282 310 347 351 333 329 312 306 264 7 25 30 18 1 355 51 32 30 19 8 8 6 356 338 326 318 331 324 319 316 314 319 315 319 316 316 311 305 299 313 320 318 318 315 321 321 315 311 309 309 309 308 314 311 307 320
359 358 356 354 354 356 2 7 1 353 351 0 2 11 25 13 357 48 11 32 52 44 101 299 327 197 263 318 332 311 276 285 329 358 353 348 321 331 5 331 286 42 27 23 330 36 302 42 30 16 2 350 350 351 339 323 312 299 305 306 311 314 313 318 325 310 317 308 289 313 314 307 306 309 308 307 310 309 309 311 315 317 320 323 325 334 344 345
2 359 355 354 354 355 3 11 8 4 354 2 30 66 56 336 334 25 341 34 126 14 30 25 15 354 341 305 316 346 10 334 193 359 11 319 324 291 3 348 14 36 15 342 350 260 354 42 25 5 345 335 336 342 340 333 332 325 315 315 314 324 313 330 320 340 327 313 297 306 304 301 300 301 297 297 299 306 315 317 316 320 322 327 340 356 6 355
1 357 354 352 353 353 358 14 17 5 357 33 55 76 98 64 7 66 242 86 58 129 252 272 216 317 236 236 290 310 218 331 2 1 358 357 6 24 344 17 23 28 4 352 11 50 45 38 9 353 340 326 360 8 3 349 340 339 342 336 323 337 336 318 302 334 328 301 296 309 305 296 297 295 297 303 304 302 312 324 314 314 322 344 4 4 1 6
359 354 351 349 350 350 355 19 30 10 20 46 56 75 67 15 245 205 234 142 79 279 19 21 9 3 1 121 74 240 16 37 335 358 355 347 354 32 331 17 14 16 25 13 36 34 47 20 358 343 348 346 17 19 10 1 350 1 349 349 345 352 351 338 349 345 322 310 298 312 300 294 304 328 307 298 335 330 323 316 302 22 20 23 19 16 11 14
357 351 348 346 344 345 350 66 48 25 34 56 64 55 325 274 184 176 185 61 51 33 32 69 295 358 6 354 5 350 8 24 339 352 351 354 4 310 344 12 349 26 22 9 32 61 54 7 337 338 356 3 1 18 16 4 1 14 21 10 348 343 331 328 325 327 310 281 262 291 287 233 86 18 352 26 55 265 293 343 45 54 40 37 34 26 19 15
353 348 346 342 339 339 344 132 39 14 267 53 64 63 4 327 227 199 232 138 178 42 151 170 172 69 344 211 327 337 342 214 22 323 337 0 344 333 18 315 323 27 0 358 281 54 38 15 343 354 355 1 6 18 20 0 4 359 83 355 328 319 316 317 324 331 323 336 133 338 333 134 63 2 345 18 347 349 46 48 39 38 35 31 29 22 15 13
350 347 345 342 340 336 316 175 29 353 5 57 27 354 9 312 225 183 239 97 65 327 316 25 310 27 272 351 340 348 262 47 1 350 315 10 279 33 287 30 15 8 345 340 43 60 351 338 358 344 339 3 18 17 16 4 353 343 21 305 313 308 307 314 323 334 332 332 356 10 309 294 30 345 327 333 336 358 53 47 39 30 27 24 21 16 12 10
350 346 347 351 354 340 122 60 314 217 68 69 42 340 340 229 235 145 228 93 53 11 358 328 307 24 357 346 323 282 45 344 312 347 1 7 2 264 349 13 5 26 343 309 221 39 341 352 353 351 2 12 10 3 350 354 333 353 342 318 309 298 304 318 324 303 295 295 286 264 243 288 313 312 302 350 337 47 48 49 41 33 25 20 14 11 8 6
351 351 353 18 35 20 67 101 21 36 23 328 352 335 320 162 174 166 259 69 1 333 0 346 31 306 24 330 344 51 118 289 330 9 351 326 310 311 52 29 15 348 342 308 62 358 13 343 359 350 4 12 1 333 327 338 328 312 321 318 299 288 294 299 292 289 292 322 353 30 358 290 266 340 346 3 31 44 44 37 34 26 20 16 10 8 5 3
353 355 2 61 71 63 42 51 60 24 332 323 319 310 53 195 231 250 157 110 6 9 157 78 141 356 344 294 62 44 311 4 28 318 320 281 26 244 28 24 15 319 13 22 52 359 22 356 332 320 360 4 335 328 328 325 328 327 313 301 280 288 292 256 238 271 316 300 19 11 2 325 323 56 54 45 41 37 34 38 32 21 15 11 8 4 2 0
353 1 6 39 147 51 29 320 36 342 325 327 315 285 188 174 209 202 31 15 341 307 36 294 4 328 323 340 44 20 20 11 239 312 337 9 336 40 95 179 3 348 27 113 70 30 285 297 217 345 17 351 323 317 315 313 276 289 298 310 18 94 86 116 246 246 243 227 33 6 356 340 323 61 37 36 42 20 21 25 18 12 9 6 4 4 359 359
353 2 13 360 56 352 293 22 354 351 341 327 313 156 189 202 70 98 80 249 49 305 276 31 5 325 2 31 9 356 351 343 358 354 3 357 21 26 21 164 348 295 12 14 29 352 360 299 56 9 219 318 318 313 344 279 267 329 342 335 290 159 154 143 104 241 341 11 35 2 346 325 266 98 69 67 50 38 35 23 12 7 1 358 357 357 357 356
347 0 40 45 100 315 47 337 320 326 329 323 235 221 242 232 31 59 152 356 265 13 15 334 38 356 354 326 25 352 351 328 11 10 12 14 38 33 33 42 350 353 30 15 344 334 151 52 262 336 179 351 349 346 4 309 332 2 0 5 22 21 8 12 14 6 359 329 336 345 349 313 252 32 99 77 58 53 47 34 18 5 358 356 353 356 356 355
342 356 78 98 149 58 73 287 302 312 310 251 229 238 343 94 53 283 285 337 91 333 6 210 320 358 317 262 20 344 259 22 338 17 332 352 23 63 49 35 9 37 348 352 341 358 13 198 6 4 209 4 359 9 356 9 353 360 15 8 23 19 28 8 357 323 309 294 318 336 339 271 338 113 78 83 57 54 56 35 21 11 359 353 351 354 354 355
339 357 3 0 107 101 342 308 295 313 319 216 251 267 43 57 182 61 309 291 353 326 287 325 324 30 24 54 355 332 4 111 13 348 0 340 29 38 34 34 19 12 8 327 25 353 354 327 46 13 9 354 8 18 340 301 316 353 343 23 53 47 25 353 345 343 326 310 313 319 298 32 342 57 144 90 75 56 39 29 10 5 1 355 351 354 356 356
327 39 330 230 273 198 342 343 336 287 263 275 45 78 91 179 250 209 230 267 250 245 308 359 295 310 44 35 3 2 12 334 25 347 22 16 37 40 29 26 24 16 358 340 18 322 279 271 298 22 315 333 360 351 312 305 268 3 335 273 34 45 328 337 320 298 323 317 316 343 309 321 311 317 133 99 106 80 42 17 12 8 360 354 355 357 353 351
319 304 329 27 337 351 351 343 328 237 267 9 75 38 61 154 149 168 83 245 13 316 317 120 8 60 359 317 299 345 173 289 2 344 51 38 28 40 57 37 26 23 21 18 328 336 301 254 44 333 3 54 355 337 339 328 353 335 320 31 351 302 231 301 260 222 262 264 260 300 302 302 317 3 101 91 49 23 14 8 9 1 354 355 358 356 352 345
16 336 274 338 324 348 339 342 304 163 75 88 85 84 102 262 237 168 316 265 48 303 301 279 17 20 347 329 340 356 353 300 8 357 39 333 112 34 35 87 33 28 34 347 344 103 334 289 305 296 336 66 343 327 276 22 306 289 16 7 331 257 261 0 322 312 314 317 300 331 303 310 336 322 96 19 19 22 14 3 355 356 354 354 353 352 349 344
357 21 317 324 345 328 328 326 270 58 82 77 58 91 267 102 170 228 215 151 197 48 55 65 102 300 111 319 336 357 346 349 360 6 0 1 85 324 52 358 54 25 340 332 285 27 343 303 19 157 318 323 340 321 171 226 334 28 34 316 316 12 314 355 307 340 339 325 313 293 300 283 277 280 342 351 14 11 6 3 353 349 351 351 349 346 345 345
50 355 309 4 349 341 327 306 345 42 77 70 106 118 204 310 284 231 276 321 37 202 44 298 44 53 340 319 313 319 7 10 345 349 332 56 350 64 75 322 358 3 352 325 300 350 241 281 316 124 357 327 303 316 3 354 124 171 262 43 36 286 25 326 4 293 284 289 331 286 321 290 251 341 345 330 20 359 354 0 352 343 345 347 345 345 342 344
6 353 346 351 331 337 322 274 56 41 49 95 163 96 121 154 159 264 5 309 44 305 59 141 227 266 49 359 310 343 338 340 343 321 297 73 289 77 40 33 346 344 358 320 286 143 309 217 279 335 346 313 358 11 354 338 325 332 353 25 27 21 247 249 246 245 287 302 300 303 305 283 127 356 315 329 354 351 353 348 344 342 342 345 345 341 339 343
227 110 271 349 341 331 299 41 42 29 78 55 54 145 183 130 161 92 24 13 119 23 355 211 180 225 181 265 176 348 317 315 294 301 305 271 284 341 98 11 348 350 327 308 243 349 291 213 275 308 327 342 300 14 348 304 294 283 348 44 5 357 355 350 313 153 246 273 298 302 279 275 297 294 288 356 333 341 347 338 339 344 344 343 343 339 338 339
169 62 330 3 353 341 97 55 38 7 77 106 120 165 95 191 118 70 70 48 53 52 354 354 45 37 163 262 327 298 312 302 273 282 201 290 155 274 109 241 355 307 346 327 323 334 308 297 282 294 294 300 292 311 41 310 252 273 307 30 1 352 322 337 316 334 314 267 279 264 281 277 17 149 261 330 337 342 336 334 339 348 345 342 337 335 333 335
32 107 316 337 5 349 60 72 13 48 62 48 311 51 351 48 81 32 122 27 358 62 24 20 33 163 202 306 278 325 250 300 271 247 339 293 302 315 114 49 357 356 336 314 280 116 121 311 283 259 275 265 290 59 138 14 148 124 117 89 343 332 339 301 296 307 295 292 284 275 251 261 235 298 313 329 333 326 325 335 345 346 345 339 335 331 329 333
139 354 345 308 352 246 74 122 112 68 91 332 39 65 354 103 142 135 92 87 78 98 95 155 231 264 259 267 114 315 277 311 74 332 281 91 298 103 154 273 14 342 335 2 296 34 304 146 304 316 322 207 202 136 137 231 236 326 311 319 307 298 322 321 293 273 266 254 257 263 269 273 227 287 301 310 317 319 325 333 344 345 343 337 333 329 326 329
122 206 277 306 355 29 89 184 125 129 102 46 34 43 7 70 30 70 2 110 106 110 172 138 141 172 114 285 275 265 309 319 295 50 323 279 281 9 208 0 345 322 269 276 280 295 251 298 322 326 342 336 334 328 328 317 318 311 297 308 288 290 296 310 293 276 263 259 243 241 260 269 290 298 299 307 315 319 324 337 350 348 341 336 330 327 325 327
16 101 327 9 7 43 77 43 80 123 123 155 72 274 313 111 116 171 224 109 105 134 196 122 94 179 132 298 271 343 297 36 204 303 333 311 310 300 294 311 316 297 294 284 307 299 264 272 254 259 258 262 269 282 306 327 313 296 288 288 287 280 274 271 274 265 249 268 268 255 259 280 289 294 296 308 315 317 325 339 345 344 338 334 330 324 325 323
115 81 346 39 351 51 64 23 66 57 110 244 133 178 132 81 310 32 253 158 147 123 127 104 147 178 167 202 299 276 250 296 274 301 255 269 246 259 320 289 298 289 277 304 29 70 8 285 244 256 252 256 269 275 286 294 286 283 289 289 284 278 272 265 242 245 255 320 273 263 267 276 283 289 295 304 311 316 330 343 339 336 334 331 330 324 322 322
94 158 104 336 337 72 114 49 43 79 65 27 96 226 103 134 141 127 221 271 114 213 182 120 122 95 157 187 169 272 269 264 226 246 310 226 291 302 311 304 261 313 360 65 348 8 327 292 235 225 251 260 270 278 282 282 275 278 281 281 282 278 266 250 245 249 264 257 258 271 284 287 289 288 293 300 307 322 336 333 328 321 323 327 331 327 323 322
43 122 146 313 166 259 38 128 121 127 111 119 110 114 154 180 146 163 163 157 179 150 231 175 179 169 156 162 198 273 212 315 296 213 216 274 281 318 307 320 116 31 79 70 51 79 311 257 263 259 283 279 274 274 274 276 279 277 268 271 270 272 269 264 267 264 255 252 256 266 274 275 280 284 293 301 313 319 318 313 316 325 328 330 327 325 319 316
169 167 139 24 75 103 104 114 114 147 102 358 129 141 162 189 151 159 208 205 182 175 189 203 173 181 193 196 209 245 230 235 270 281 267 260 282 246 280 253 274 14 52 187 338 37 248 282 326 321 304 287 265 260 269 270 281 287 283 273 270 269 270 268 265 265 265 261 258 258 263 268 271 279 292 303 301 300 305 320 324 324 326 326 323 319 315 308
78 0 125 132 99 129 127 78 162 145 124 196 135 165 180 194 210 186 221 213 231 183 180 166 163 188 194 216 225 248 263 261 264 263 270 261 274 289 290 285 198 261 269 286 175 269 195 273 305 301 308 295 271 260 269 286 287 277 281 284 277 261 258 258 235 231 229 264 276 280 280 283 293 300 301 294 285 298 312 316 318 322 324 322 318 313 307 305
92 113 241 110 104 202 162 94 306 198 138 181 150 176 179 183 167 161 254 153 243 240 197 182 171 222 207 204 240 246 260 260 255 260 263 262 259 266 257 265 268 272 282 280 241 241 238 280 294 308 293 288 242 219 327 310 291 276 250 247 257 271 231 250 265 270 256 264 276 277 280 297 312 310 294 290 295 305 306 309 311 312 315 315 311 313 308 302